TimeMST,TemperatureF,Dew PointF,Humidity,Sea Level PressureIn,VisibilityMPH,Wind Direction,Wind SpeedMPH,Gust SpeedMPH,PrecipitationIn,Events,Conditions,WindDirDegrees,DateUTC
12:22 AM,35.6,33.8,93,29.79,4.0,West,16.1,20.7,0.02,Snow,Light Snow,260,2013-03-09 07:22:00
12:24 AM,33.8,32.0,93,29.79,2.5,West,18.4,23.0,0.03,Snow,Light Snow,270,2013-03-09 07:24:00
12:29 AM,33.8,30.2,87,29.79,1.2,West,11.5,23.0,0.03,Snow,Light Snow,260,2013-03-09 07:29:00
12:53 AM,33.1,32.0,96,29.66,1.8,WSW,12.7,20.7,0.03,Snow,Light Snow,250,2013-03-09 07:53:00
1:01 AM,32.0,32.0,100,29.79,2.0,West,10.4,-,0.00,Snow,Light Snow,260,2013-03-09 08:01:00
1:25 AM,33.8,32.0,93,29.81,1.5,SW,10.4,-,0.01,Snow,Light Snow,230,2013-03-09 08:25:00
1:43 AM,33.8,30.2,87,29.80,3.0,West,17.3,-,0.01,Snow,Light Snow,280,2013-03-09 08:43:00
1:50 AM,33.8,30.2,87,29.81,1.8,West,13.8,25.3,0.01,Snow,Light Snow,280,2013-03-09 08:50:00
1:53 AM,32.0,30.0,92,29.69,1.2,West,13.8,25.3,0.01,Snow,Light Snow,280,2013-03-09 08:53:00
2:17 AM,30.2,30.2,100,29.80,3.0,NW,5.8,-,0.00,Snow,Light Snow,310,2013-03-09 09:17:00
2:27 AM,30.2,30.2,100,29.80,9.0,NW,5.8,-,0.00,,Overcast,320,2013-03-09 09:27:00
2:53 AM,32.0,28.0,85,29.72,5.0,West,10.4,-,0.00,Snow,Light Snow,270,2013-03-09 09:53:00
3:06 AM,30.2,28.4,93,29.80,2.5,SW,10.4,-,0.00,Snow,Light Snow,220,2013-03-09 10:06:00
3:13 AM,30.2,28.4,93,29.79,5.0,SW,6.9,-,0.00,Snow,Light Snow,220,2013-03-09 10:13:00
3:29 AM,30.2,28.4,93,29.79,10.0,SE,5.8,-,0.00,,Mostly Cloudy,140,2013-03-09 10:29:00
3:38 AM,30.2,28.4,93,29.77,10.0,ESE,8.1,-,0.00,,Mostly Cloudy,110,2013-03-09 10:38:00
3:53 AM,30.9,28.0,89,29.72,10.0,SE,8.1,-,0.00,,Overcast,140,2013-03-09 10:53:00
4:00 AM,30.2,28.4,93,29.78,10.0,Variable,6.9,-,N/A,,Overcast,0,2013-03-09 11:00:00
4:16 AM,30.2,26.6,86,29.78,10.0,South,6.9,-,N/A,,Overcast,170,2013-03-09 11:16:00
4:53 AM,30.9,27.0,85,29.72,10.0,SSW,9.2,-,N/A,,Overcast,200,2013-03-09 11:53:00
5:53 AM,28.9,25.0,85,29.72,10.0,SW,12.7,-,0.01,,Overcast,230,2013-03-09 12:53:00
6:53 AM,26.1,18.0,71,29.75,10.0,NNE,4.6,-,N/A,,Clear,30,2013-03-09 13:53:00
7:53 AM,28.9,21.0,72,29.76,10.0,West,9.2,-,N/A,,Overcast,270,2013-03-09 14:53:00
8:53 AM,28.9,19.9,69,29.77,10.0,WSW,10.4,-,N/A,,Clear,240,2013-03-09 15:53:00
9:53 AM,33.1,21.9,64,29.74,10.0,West,16.1,23.0,N/A,,Scattered Clouds,260,2013-03-09 16:53:00
10:53 AM,33.1,23.0,66,29.74,10.0,West,17.3,-,N/A,,Overcast,260,2013-03-09 17:53:00
11:53 AM,37.0,26.1,65,29.72,10.0,WSW,16.1,28.8,N/A,,Mostly Cloudy,240,2013-03-09 18:53:00
12:53 PM,35.1,23.0,61,29.73,4.0,West,15.0,-,0.00,Snow,Light Snow,270,2013-03-09 19:53:00
1:53 PM,39.9,24.1,53,29.69,10.0,West,18.4,24.2,0.00,,Partly Cloudy,260,2013-03-09 20:53:00
2:53 PM,37.0,23.0,57,29.72,10.0,West,19.6,24.2,N/A,,Overcast,270,2013-03-09 21:53:00
3:38 PM,33.8,26.6,75,29.79,7.0,North,12.7,-,0.00,Snow,Light Snow,10,2013-03-09 22:38:00
3:53 PM,33.1,26.1,75,29.77,6.0,NNE,11.5,-,0.00,Snow,Light Snow,20,2013-03-09 22:53:00
4:18 PM,33.8,28.4,81,29.80,1.8,NNE,10.4,-,0.00,Snow,Light Snow,20,2013-03-09 23:18:00
4:42 PM,33.8,28.4,81,29.81,3.0,NNE,4.6,-,0.01,Snow,Light Snow,20,2013-03-09 23:42:00
4:53 PM,34.0,28.0,79,29.79,9.0,NNE,6.9,-,0.01,,Overcast,30,2013-03-09 23:53:00
5:53 PM,32.0,27.0,82,29.84,9.0,North,11.5,-,N/A,,Overcast,10,2013-03-10 00:53:00
6:53 PM,30.0,27.0,88,29.89,10.0,NNW,3.5,-,0.00,,Mostly Cloudy,330,2013-03-10 01:53:00
7:53 PM,28.9,27.0,92,29.91,10.0,NW,3.5,-,N/A,,Clear,310,2013-03-10 02:53:00
8:53 PM,28.0,25.0,88,29.94,10.0,Calm,Calm,-,N/A,,Clear,0,2013-03-10 03:53:00
9:53 PM,28.9,24.1,82,29.94,10.0,Calm,Calm,-,N/A,,Clear,0,2013-03-10 04:53:00
10:53 PM,27.0,24.1,89,29.96,10.0,West,3.5,-,N/A,,Clear,280,2013-03-10 05:53:00
11:53 PM,28.0,24.1,85,29.94,10.0,Calm,Calm,-,N/A,,Overcast,0,2013-03-10 06:53:00